Year,Month,Day,Hour,Minute,Value (Times are PST for temperature in C)
2011,08,21,00,00,16.40
2011,08,21,00,01,16.40
2011,08,21,00,02,16.40
2011,08,21,00,03,16.40
2011,08,21,00,04,16.40
2011,08,21,00,05,16.40
2011,08,21,00,06,16.40
2011,08,21,00,07,16.40
2011,08,21,00,08,16.40
2011,08,21,00,09,16.50
2011,08,21,00,10,16.40
2011,08,21,00,11,16.40
2011,08,21,00,12,16.40
2011,08,21,00,13,16.40
2011,08,21,00,14,16.40
2011,08,21,00,15,16.40
2011,08,21,00,16,16.40
2011,08,21,00,17,16.30
2011,08,21,00,18,16.30
2011,08,21,00,19,16.30
2011,08,21,00,20,16.30
2011,08,21,00,21,16.30
2011,08,21,00,22,16.30
2011,08,21,00,23,16.20
2011,08,21,00,24,16.20
2011,08,21,00,25,16.20
2011,08,21,00,26,16.20
2011,08,21,00,27,16.20
2011,08,21,00,28,16.20
2011,08,21,00,29,16.20
2011,08,21,00,30,16.10
2011,08,21,00,31,16.10
2011,08,21,00,32,16.10
2011,08,21,00,33,16.10
2011,08,21,00,34,16.10
2011,08,21,00,35,16.10
2011,08,21,00,36,16.10
2011,08,21,00,37,16.00
2011,08,21,00,38,16.00
2011,08,21,00,39,16.00
2011,08,21,00,40,16.00
2011,08,21,00,41,15.90
2011,08,21,00,42,15.90
2011,08,21,00,43,15.90
2011,08,21,00,44,15.90
2011,08,21,00,45,15.90
2011,08,21,00,46,15.80
2011,08,21,00,47,15.80
2011,08,21,00,48,15.80
2011,08,21,00,49,15.80
2011,08,21,00,50,15.80
2011,08,21,00,51,15.80
2011,08,21,00,52,15.80
2011,08,21,00,53,15.80
2011,08,21,00,54,15.80
2011,08,21,00,55,15.80
2011,08,21,00,56,15.80
2011,08,21,00,57,15.80
2011,08,21,00,58,15.80
2011,08,21,00,59,15.80
2011,08,21,01,00,15.80
2011,08,21,01,01,15.80
2011,08,21,01,02,15.80
2011,08,21,01,03,15.80
2011,08,21,01,04,15.80
2011,08,21,01,05,15.80
2011,08,21,01,06,15.80
2011,08,21,01,07,15.70
2011,08,21,01,08,15.70
2011,08,21,01,09,15.70
2011,08,21,01,10,15.70
2011,08,21,01,11,15.70
2011,08,21,01,12,15.70
2011,08,21,01,13,15.70
2011,08,21,01,14,15.70
2011,08,21,01,15,15.70
2011,08,21,01,16,15.70
2011,08,21,01,17,15.70
2011,08,21,01,18,15.70
2011,08,21,01,19,15.70
2011,08,21,01,20,15.70
2011,08,21,01,21,15.70
2011,08,21,01,22,15.60
2011,08,21,01,23,15.60
2011,08,21,01,24,15.60
2011,08,21,01,25,15.60
2011,08,21,01,26,15.60
2011,08,21,01,27,15.60
2011,08,21,01,28,15.60
2011,08,21,01,29,15.60
2011,08,21,01,30,15.60
2011,08,21,01,31,15.60
2011,08,21,01,32,15.60
2011,08,21,01,33,15.60
2011,08,21,01,34,15.60
2011,08,21,01,35,15.60
2011,08,21,01,36,15.60
2011,08,21,01,37,15.60
2011,08,21,01,38,15.60
2011,08,21,01,39,15.60
2011,08,21,01,40,15.60
2011,08,21,01,41,15.70
2011,08,21,01,42,15.70
2011,08,21,01,43,15.70
2011,08,21,01,44,15.70
2011,08,21,01,45,15.70
2011,08,21,01,46,15.70
2011,08,21,01,47,15.70
2011,08,21,01,48,15.70
2011,08,21,01,49,15.80
2011,08,21,01,50,15.80
2011,08,21,01,51,15.80
2011,08,21,01,52,15.80
2011,08,21,01,53,15.80
2011,08,21,01,54,15.80
2011,08,21,01,55,15.80
2011,08,21,01,56,15.80
2011,08,21,01,57,15.80
2011,08,21,01,58,15.80
2011,08,21,01,59,15.80
2011,08,21,02,00,15.80
2011,08,21,02,01,15.80
2011,08,21,02,02,15.80
2011,08,21,02,03,15.80
2011,08,21,02,04,15.70
2011,08,21,02,05,15.80
2011,08,21,02,06,15.80
2011,08,21,02,07,15.80
2011,08,21,02,08,15.80
2011,08,21,02,09,15.80
2011,08,21,02,10,15.80
2011,08,21,02,11,15.80
2011,08,21,02,12,15.90
2011,08,21,02,13,15.90
2011,08,21,02,14,15.90
2011,08,21,02,15,16.00
2011,08,21,02,16,16.00
2011,08,21,02,17,16.00
2011,08,21,02,18,16.10
2011,08,21,02,19,16.10
2011,08,21,02,20,16.10
2011,08,21,02,21,16.20
2011,08,21,02,22,16.20
2011,08,21,02,23,16.20
2011,08,21,02,24,16.20
2011,08,21,02,25,16.30
2011,08,21,02,26,16.30
2011,08,21,02,27,16.30
2011,08,21,02,28,16.30
2011,08,21,02,29,16.40
2011,08,21,02,30,16.40
2011,08,21,02,31,16.40
2011,08,21,02,32,16.40
2011,08,21,02,33,16.40
2011,08,21,02,34,16.40
2011,08,21,02,35,16.40
2011,08,21,02,36,16.30
2011,08,21,02,37,16.30
2011,08,21,02,38,16.30
2011,08,21,02,39,16.20
2011,08,21,02,40,16.20
2011,08,21,02,41,16.20
2011,08,21,02,42,16.20
2011,08,21,02,43,16.20
2011,08,21,02,44,16.10
2011,08,21,02,45,16.10
2011,08,21,02,46,16.10
2011,08,21,02,47,16.10
2011,08,21,02,48,16.10
2011,08,21,02,49,16.10
2011,08,21,02,50,16.10
2011,08,21,02,51,16.00
2011,08,21,02,52,16.00
2011,08,21,02,53,16.00
2011,08,21,02,54,16.00
2011,08,21,02,55,16.00
2011,08,21,02,56,16.00
2011,08,21,02,57,16.00
2011,08,21,02,58,15.90
2011,08,21,02,59,15.90
2011,08,21,03,00,15.90
2011,08,21,03,01,15.90
2011,08,21,03,02,15.80
2011,08,21,03,03,15.80
2011,08,21,03,04,15.80
2011,08,21,03,05,15.70
2011,08,21,03,06,15.60
2011,08,21,03,07,15.60
2011,08,21,03,08,15.50
2011,08,21,03,09,15.40
2011,08,21,03,10,15.40
2011,08,21,03,11,15.40
2011,08,21,03,12,15.40
2011,08,21,03,13,15.30
2011,08,21,03,14,15.30
2011,08,21,03,15,15.30
2011,08,21,03,16,15.40
2011,08,21,03,17,15.40
2011,08,21,03,18,15.40
2011,08,21,03,19,15.40
2011,08,21,03,20,15.40
2011,08,21,03,21,15.40
2011,08,21,03,22,15.40
2011,08,21,03,23,15.40
2011,08,21,03,24,15.40
2011,08,21,03,25,15.40
2011,08,21,03,26,15.40
2011,08,21,03,27,15.40
2011,08,21,03,28,15.40
2011,08,21,03,29,15.40
2011,08,21,03,30,15.40
2011,08,21,03,31,15.40
2011,08,21,03,32,15.40
2011,08,21,03,33,15.40
2011,08,21,03,34,15.40
2011,08,21,03,35,15.30
2011,08,21,03,36,15.30
2011,08,21,03,37,15.30
2011,08,21,03,38,15.30
2011,08,21,03,39,15.30
2011,08,21,03,40,15.30
2011,08,21,03,41,15.30
2011,08,21,03,42,15.30
2011,08,21,03,43,15.30
2011,08,21,03,44,15.30
2011,08,21,03,45,15.20
2011,08,21,03,46,15.20
2011,08,21,03,47,15.20
2011,08,21,03,48,15.20
2011,08,21,03,49,15.20
2011,08,21,03,50,15.20
2011,08,21,03,51,15.20
2011,08,21,03,52,15.10
2011,08,21,03,53,15.10
2011,08,21,03,54,15.10
2011,08,21,03,55,15.00
2011,08,21,03,56,15.00
2011,08,21,03,57,15.00
2011,08,21,03,58,15.00
2011,08,21,03,59,15.00
2011,08,21,04,00,15.00
2011,08,21,04,01,15.00
2011,08,21,04,02,15.00
2011,08,21,04,03,15.00
2011,08,21,04,04,15.00
2011,08,21,04,05,15.00
2011,08,21,04,06,15.00
2011,08,21,04,07,15.00
2011,08,21,04,08,15.00
2011,08,21,04,09,15.00
2011,08,21,04,10,15.00
2011,08,21,04,11,15.00
2011,08,21,04,12,15.00
2011,08,21,04,13,15.00
2011,08,21,04,14,15.00
2011,08,21,04,15,15.00
2011,08,21,04,16,14.90
2011,08,21,04,17,14.90
2011,08,21,04,18,14.90
2011,08,21,04,19,14.90
2011,08,21,04,20,14.90
2011,08,21,04,21,14.80
2011,08,21,04,22,14.90
2011,08,21,04,23,14.90
2011,08,21,04,24,14.90
2011,08,21,04,25,14.80
2011,08,21,04,26,14.80
2011,08,21,04,27,14.80
2011,08,21,04,28,14.80
2011,08,21,04,29,14.80
2011,08,21,04,30,14.80
2011,08,21,04,31,14.80
2011,08,21,04,32,14.70
2011,08,21,04,33,14.70
2011,08,21,04,34,14.70
2011,08,21,04,35,14.70
2011,08,21,04,36,14.70
2011,08,21,04,37,14.70
2011,08,21,04,38,14.70
2011,08,21,04,39,14.60
2011,08,21,04,40,14.60
2011,08,21,04,41,14.70
2011,08,21,04,42,14.70
2011,08,21,04,43,14.60
2011,08,21,04,44,14.60
2011,08,21,04,45,14.60
2011,08,21,04,46,14.60
2011,08,21,04,47,14.60
2011,08,21,04,48,14.60
2011,08,21,04,49,14.60
2011,08,21,04,50,14.60
2011,08,21,04,51,14.60
2011,08,21,04,52,14.60
2011,08,21,04,53,14.60
2011,08,21,04,54,14.60
2011,08,21,04,55,14.50
2011,08,21,04,56,14.50
2011,08,21,04,57,14.50
2011,08,21,04,58,14.50
2011,08,21,04,59,14.50
2011,08,21,05,00,14.50
2011,08,21,05,01,14.50
2011,08,21,05,02,14.50
2011,08,21,05,03,14.40
2011,08,21,05,04,14.40
2011,08,21,05,05,14.40
2011,08,21,05,06,14.40
2011,08,21,05,07,14.40
2011,08,21,05,08,14.40
2011,08,21,05,09,14.40
2011,08,21,05,10,14.40
2011,08,21,05,11,14.40
2011,08,21,05,12,14.40
2011,08,21,05,13,14.40
2011,08,21,05,14,14.40
2011,08,21,05,15,14.40
2011,08,21,05,16,14.30
2011,08,21,05,17,14.30
2011,08,21,05,18,14.30
2011,08,21,05,19,14.30
2011,08,21,05,20,14.30
2011,08,21,05,21,14.30
2011,08,21,05,22,14.30
2011,08,21,05,23,14.20
2011,08,21,05,24,14.20
2011,08,21,05,25,14.20
2011,08,21,05,26,14.20
2011,08,21,05,27,14.20
2011,08,21,05,28,14.20
2011,08,21,05,29,14.20
2011,08,21,05,30,14.20
2011,08,21,05,31,14.20
2011,08,21,05,32,14.20
2011,08,21,05,33,14.20
2011,08,21,05,34,14.20
2011,08,21,05,35,14.20
2011,08,21,05,36,14.20
2011,08,21,05,37,14.20
2011,08,21,05,38,14.20
2011,08,21,05,39,14.20
2011,08,21,05,40,14.20
2011,08,21,05,41,14.20
2011,08,21,05,42,14.20
2011,08,21,05,43,14.20
2011,08,21,05,44,14.20
2011,08,21,05,45,14.10
2011,08,21,05,46,14.10
2011,08,21,05,47,14.10
2011,08,21,05,48,14.00
2011,08,21,05,49,13.90
2011,08,21,05,50,13.90
2011,08,21,05,51,13.90
2011,08,21,05,52,13.80
2011,08,21,05,53,13.80
2011,08,21,05,54,13.80
2011,08,21,05,55,13.80
2011,08,21,05,56,13.80
2011,08,21,05,57,13.80
2011,08,21,05,58,13.80
2011,08,21,05,59,13.80
2011,08,21,06,00,13.80
2011,08,21,06,01,13.80
2011,08,21,06,02,13.80
2011,08,21,06,03,13.80
2011,08,21,06,04,13.80
2011,08,21,06,05,13.80
2011,08,21,06,06,13.80
2011,08,21,06,07,13.80
2011,08,21,06,08,13.80
2011,08,21,06,09,13.80
2011,08,21,06,10,13.80
2011,08,21,06,11,13.80
2011,08,21,06,12,13.80
2011,08,21,06,13,13.80
2011,08,21,06,14,13.80
2011,08,21,06,15,13.80
2011,08,21,06,16,13.90
2011,08,21,06,17,13.90
2011,08,21,06,18,13.90
2011,08,21,06,19,13.90
2011,08,21,06,20,13.90
2011,08,21,06,21,13.90
2011,08,21,06,22,13.90
2011,08,21,06,23,13.90
2011,08,21,06,24,13.90
2011,08,21,06,25,13.90
2011,08,21,06,26,13.90
2011,08,21,06,27,13.90
2011,08,21,06,28,13.90
2011,08,21,06,29,13.90
2011,08,21,06,30,13.90
2011,08,21,06,31,13.90
2011,08,21,06,32,13.90
2011,08,21,06,33,13.90
2011,08,21,06,34,13.90
2011,08,21,06,35,13.80
2011,08,21,06,36,13.90
2011,08,21,06,37,13.80
2011,08,21,06,38,13.80
2011,08,21,06,39,13.80
2011,08,21,06,40,13.80
2011,08,21,06,41,13.80
2011,08,21,06,42,13.80
2011,08,21,06,43,13.80
2011,08,21,06,44,13.80
2011,08,21,06,45,13.90
2011,08,21,06,46,13.90
2011,08,21,06,47,13.90
2011,08,21,06,48,13.90
2011,08,21,06,49,13.90
2011,08,21,06,50,13.90
2011,08,21,06,51,14.00
2011,08,21,06,52,14.00
2011,08,21,06,53,14.00
2011,08,21,06,54,14.10
2011,08,21,06,55,14.10
2011,08,21,06,56,14.10
2011,08,21,06,57,14.10
2011,08,21,06,58,14.10
2011,08,21,06,59,14.10
2011,08,21,07,00,14.10
2011,08,21,07,01,14.10
2011,08,21,07,02,14.20
2011,08,21,07,03,14.20
2011,08,21,07,04,14.20
2011,08,21,07,05,14.20
2011,08,21,07,06,14.20
2011,08,21,07,07,14.20
2011,08,21,07,08,14.10
2011,08,21,07,09,14.10
2011,08,21,07,10,14.10
2011,08,21,07,11,14.10
2011,08,21,07,12,14.10
2011,08,21,07,13,14.10
2011,08,21,07,14,14.10
2011,08,21,07,15,14.20
2011,08,21,07,16,14.20
2011,08,21,07,17,14.20
2011,08,21,07,18,14.20
2011,08,21,07,19,14.20
2011,08,21,07,20,14.30
2011,08,21,07,21,14.30
2011,08,21,07,22,14.30
2011,08,21,07,23,14.40
2011,08,21,07,24,14.40
2011,08,21,07,25,14.40
2011,08,21,07,26,14.50
2011,08,21,07,27,14.50
2011,08,21,07,28,14.50
2011,08,21,07,29,14.50
2011,08,21,07,30,14.60
2011,08,21,07,31,14.60
2011,08,21,07,32,14.60
2011,08,21,07,33,14.60
2011,08,21,07,34,14.70
2011,08,21,07,35,14.70
2011,08,21,07,36,14.70
2011,08,21,07,37,14.70
2011,08,21,07,38,14.70
2011,08,21,07,39,14.70
2011,08,21,07,40,14.60
2011,08,21,07,41,14.60
2011,08,21,07,42,14.50
2011,08,21,07,43,14.40
2011,08,21,07,44,14.40
2011,08,21,07,45,14.30
2011,08,21,07,46,14.30
2011,08,21,07,47,14.30
2011,08,21,07,48,14.30
2011,08,21,07,49,14.30
2011,08,21,07,50,14.30
2011,08,21,07,51,14.40
2011,08,21,07,52,14.40
2011,08,21,07,53,14.40
2011,08,21,07,54,14.50
2011,08,21,07,55,14.60
2011,08,21,07,56,14.60
2011,08,21,07,57,14.70
2011,08,21,07,58,14.70
2011,08,21,07,59,14.80
2011,08,21,08,00,14.90
2011,08,21,08,01,15.00
2011,08,21,08,02,15.00
2011,08,21,08,03,15.00
2011,08,21,08,04,15.00
2011,08,21,08,05,15.00
2011,08,21,08,06,15.00
2011,08,21,08,07,15.00
2011,08,21,08,08,15.00
2011,08,21,08,09,15.00
2011,08,21,08,10,15.00
2011,08,21,08,11,15.10
2011,08,21,08,12,15.10
2011,08,21,08,13,15.10
2011,08,21,08,14,15.20
2011,08,21,08,15,15.20
2011,08,21,08,16,15.30
2011,08,21,08,17,15.30
2011,08,21,08,18,15.40
2011,08,21,08,19,15.40
2011,08,21,08,20,15.50
2011,08,21,08,21,15.60
2011,08,21,08,22,15.60
2011,08,21,08,23,15.70
2011,08,21,08,24,15.80
2011,08,21,08,25,15.80
2011,08,21,08,26,15.90
2011,08,21,08,27,16.00
2011,08,21,08,28,16.10
2011,08,21,08,29,16.20
2011,08,21,08,30,16.20
2011,08,21,08,31,16.30
2011,08,21,08,32,16.30
2011,08,21,08,33,16.30
2011,08,21,08,34,16.40
2011,08,21,08,35,16.40
2011,08,21,08,36,16.40
2011,08,21,08,37,16.40
2011,08,21,08,38,16.40
2011,08,21,08,39,16.40
2011,08,21,08,40,16.40
2011,08,21,08,41,16.40
2011,08,21,08,42,16.40
2011,08,21,08,43,16.40
2011,08,21,08,44,16.40
2011,08,21,08,45,16.40
2011,08,21,08,46,16.40
2011,08,21,08,47,16.40
2011,08,21,08,48,16.40
2011,08,21,08,49,16.40
2011,08,21,08,50,16.50
2011,08,21,08,51,16.40
2011,08,21,08,52,16.40
2011,08,21,08,53,16.40
2011,08,21,08,54,16.40
2011,08,21,08,55,16.40
2011,08,21,08,56,16.40
2011,08,21,08,57,16.40
2011,08,21,08,58,16.50
2011,08,21,08,59,16.50
2011,08,21,09,00,16.50
2011,08,21,09,01,16.50
2011,08,21,09,02,16.60
2011,08,21,09,03,16.60
2011,08,21,09,04,16.70
2011,08,21,09,05,16.80
2011,08,21,09,06,16.90
2011,08,21,09,07,17.00
2011,08,21,09,08,17.00
2011,08,21,09,09,17.00
2011,08,21,09,10,17.10
2011,08,21,09,11,17.10
2011,08,21,09,12,17.20
2011,08,21,09,13,17.30
2011,08,21,09,14,17.30
2011,08,21,09,15,17.40
2011,08,21,09,16,17.50
2011,08,21,09,17,17.70
2011,08,21,09,18,17.80
2011,08,21,09,19,17.90
2011,08,21,09,20,18.10
2011,08,21,09,21,18.20
2011,08,21,09,22,18.40
2011,08,21,09,23,18.60
2011,08,21,09,24,18.80
2011,08,21,09,25,18.90
2011,08,21,09,26,19.10
2011,08,21,09,27,19.30
2011,08,21,09,28,19.40
2011,08,21,09,29,19.60
2011,08,21,09,30,19.70
2011,08,21,09,31,19.80
2011,08,21,09,32,19.90
2011,08,21,09,33,20.00
2011,08,21,09,34,20.10
2011,08,21,09,35,20.10
2011,08,21,09,36,20.10
2011,08,21,09,37,20.10
2011,08,21,09,38,20.10
2011,08,21,09,39,20.10
2011,08,21,09,40,20.20
2011,08,21,09,41,20.20
2011,08,21,09,42,20.20
2011,08,21,09,43,20.30
2011,08,21,09,44,20.30
2011,08,21,09,45,20.40
2011,08,21,09,46,20.40
2011,08,21,09,47,20.50
2011,08,21,09,48,20.50
2011,08,21,09,49,20.60
2011,08,21,09,50,20.60
2011,08,21,09,51,20.70
2011,08,21,09,52,20.70
2011,08,21,09,53,20.70
2011,08,21,09,54,20.80
2011,08,21,09,55,20.80
2011,08,21,09,56,20.80
2011,08,21,09,57,20.80
2011,08,21,09,58,20.80
2011,08,21,09,59,20.80
2011,08,21,10,00,20.80
2011,08,21,10,01,20.80
2011,08,21,10,02,20.80
2011,08,21,10,03,20.80
2011,08,21,10,04,20.80
2011,08,21,10,05,20.90
2011,08,21,10,06,20.90
2011,08,21,10,07,21.00
2011,08,21,10,08,21.10
2011,08,21,10,09,21.30
2011,08,21,10,10,21.40
2011,08,21,10,11,21.40
2011,08,21,10,12,21.40
2011,08,21,10,13,21.50
2011,08,21,10,14,21.50
2011,08,21,10,15,21.60
2011,08,21,10,16,21.60
2011,08,21,10,17,21.70
2011,08,21,10,18,21.70
2011,08,21,10,19,21.70
2011,08,21,10,20,21.60
2011,08,21,10,21,21.60
2011,08,21,10,22,21.60
2011,08,21,10,23,21.60
2011,08,21,10,24,21.50
2011,08,21,10,25,21.50
2011,08,21,10,26,21.40
2011,08,21,10,27,21.40
2011,08,21,10,28,21.40
2011,08,21,10,29,21.40
2011,08,21,10,30,21.30
2011,08,21,10,31,21.30
2011,08,21,10,32,21.30
2011,08,21,10,33,21.30
2011,08,21,10,34,21.40
2011,08,21,10,35,21.40
2011,08,21,10,36,21.50
2011,08,21,10,37,21.60
2011,08,21,10,38,21.70
2011,08,21,10,39,21.80
2011,08,21,10,40,21.90
2011,08,21,10,41,22.00
2011,08,21,10,42,22.10
2011,08,21,10,43,22.10
2011,08,21,10,44,22.20
2011,08,21,10,45,22.30
2011,08,21,10,46,22.30
2011,08,21,10,47,22.40
2011,08,21,10,48,22.40
2011,08,21,10,49,22.50
2011,08,21,10,50,22.50
2011,08,21,10,51,22.60
2011,08,21,10,52,22.60
2011,08,21,10,53,22.60
2011,08,21,10,54,22.70
2011,08,21,10,55,22.80
2011,08,21,10,56,22.80
2011,08,21,10,57,22.90
2011,08,21,10,58,23.00
2011,08,21,10,59,23.00
2011,08,21,11,00,23.10
2011,08,21,11,01,23.20
2011,08,21,11,02,23.20
2011,08,21,11,03,23.30
2011,08,21,11,04,23.30
2011,08,21,11,05,23.30
2011,08,21,11,06,23.30
2011,08,21,11,07,23.30
2011,08,21,11,08,23.30
2011,08,21,11,09,23.40
2011,08,21,11,10,23.40
2011,08,21,11,11,23.50
2011,08,21,11,12,23.60
2011,08,21,11,13,23.70
2011,08,21,11,14,23.70
2011,08,21,11,15,23.70
2011,08,21,11,16,23.70
2011,08,21,11,17,23.70
2011,08,21,11,18,23.80
2011,08,21,11,19,23.80
2011,08,21,11,20,23.80
2011,08,21,11,21,23.80
2011,08,21,11,22,23.80
2011,08,21,11,23,23.80
2011,08,21,11,24,23.80
2011,08,21,11,25,23.80
2011,08,21,11,26,23.80
2011,08,21,11,27,23.70
2011,08,21,11,28,23.70
2011,08,21,11,29,23.70
2011,08,21,11,30,23.70
2011,08,21,11,31,23.70
2011,08,21,11,32,23.50
2011,08,21,11,33,23.40
2011,08,21,11,34,23.30
2011,08,21,11,35,23.30
2011,08,21,11,36,23.30
2011,08,21,11,37,23.30
2011,08,21,11,38,23.30
2011,08,21,11,39,23.30
2011,08,21,11,40,23.40
2011,08,21,11,41,23.60
2011,08,21,11,42,23.70
2011,08,21,11,43,23.80
2011,08,21,11,44,23.90
2011,08,21,11,45,24.00
2011,08,21,11,46,24.10
2011,08,21,11,47,24.10
2011,08,21,11,48,24.30
2011,08,21,11,49,24.40
2011,08,21,11,50,24.50
2011,08,21,11,51,24.70
2011,08,21,11,52,24.80
2011,08,21,11,53,24.90
2011,08,21,11,54,25.00
2011,08,21,11,55,25.10
2011,08,21,11,56,25.00
2011,08,21,11,57,24.90
2011,08,21,11,58,24.80
2011,08,21,11,59,24.70
2011,08,21,12,00,24.70
2011,08,21,12,01,24.80
2011,08,21,12,02,24.80
2011,08,21,12,03,24.80
2011,08,21,12,04,24.80
2011,08,21,12,05,24.70
2011,08,21,12,06,24.60
2011,08,21,12,07,24.60
2011,08,21,12,08,24.60
2011,08,21,12,09,24.60
2011,08,21,12,10,24.30
2011,08,21,12,11,24.00
2011,08,21,12,12,23.80
2011,08,21,12,13,23.50
2011,08,21,12,14,23.40
2011,08,21,12,15,23.30
2011,08,21,12,16,23.30
2011,08,21,12,17,23.30
2011,08,21,12,18,23.40
2011,08,21,12,19,23.50
2011,08,21,12,20,23.40
2011,08,21,12,21,23.30
2011,08,21,12,22,23.20
2011,08,21,12,23,23.10
2011,08,21,12,24,23.20
2011,08,21,12,25,23.20
2011,08,21,12,26,23.20
2011,08,21,12,27,23.20
2011,08,21,12,28,23.30
2011,08,21,12,29,23.30
2011,08,21,12,30,23.30
2011,08,21,12,31,23.30
2011,08,21,12,32,23.40
2011,08,21,12,33,23.50
2011,08,21,12,34,23.70
2011,08,21,12,35,23.80
2011,08,21,12,36,23.90
2011,08,21,12,37,23.90
2011,08,21,12,38,24.00
2011,08,21,12,39,24.10
2011,08,21,12,40,24.10
2011,08,21,12,41,24.10
2011,08,21,12,42,24.20
2011,08,21,12,43,24.40
2011,08,21,12,44,24.50
2011,08,21,12,45,24.60
2011,08,21,12,46,24.70
2011,08,21,12,47,24.90
2011,08,21,12,48,25.00
2011,08,21,12,49,25.00
2011,08,21,12,50,24.90
2011,08,21,12,51,24.90
2011,08,21,12,52,24.90
2011,08,21,12,53,24.90
2011,08,21,12,54,24.80
2011,08,21,12,55,24.60
2011,08,21,12,56,24.40
2011,08,21,12,57,24.20
2011,08,21,12,58,23.90
2011,08,21,12,59,23.50
2011,08,21,13,00,23.20
2011,08,21,13,01,23.00
2011,08,21,13,02,22.80
2011,08,21,13,03,22.60
2011,08,21,13,04,22.60
2011,08,21,13,05,22.50
2011,08,21,13,06,22.50
2011,08,21,13,07,22.40
2011,08,21,13,08,22.40
2011,08,21,13,09,22.40
2011,08,21,13,10,22.50
2011,08,21,13,11,22.60
2011,08,21,13,12,22.70
2011,08,21,13,13,22.80
2011,08,21,13,14,22.90
2011,08,21,13,15,23.00
2011,08,21,13,16,23.10
2011,08,21,13,17,23.20
2011,08,21,13,18,23.30
2011,08,21,13,19,23.40
2011,08,21,13,20,23.50
2011,08,21,13,21,23.60
2011,08,21,13,22,23.70
2011,08,21,13,23,23.80
2011,08,21,13,24,23.80
2011,08,21,13,25,23.90
2011,08,21,13,26,23.90
2011,08,21,13,27,24.10
2011,08,21,13,28,24.20
2011,08,21,13,29,24.40
2011,08,21,13,30,24.40
2011,08,21,13,31,24.50
2011,08,21,13,32,24.60
2011,08,21,13,33,24.70
2011,08,21,13,34,24.90
2011,08,21,13,35,25.10
2011,08,21,13,36,25.30
2011,08,21,13,37,25.50
2011,08,21,13,38,25.70
2011,08,21,13,39,25.80
2011,08,21,13,40,25.90
2011,08,21,13,41,26.10
2011,08,21,13,42,26.30
2011,08,21,13,43,26.40
2011,08,21,13,44,26.50
2011,08,21,13,45,26.70
2011,08,21,13,46,26.80
2011,08,21,13,47,26.90
2011,08,21,13,48,27.00
2011,08,21,13,49,27.10
2011,08,21,13,50,27.10
2011,08,21,13,51,27.20
2011,08,21,13,52,27.20
2011,08,21,13,53,27.30
2011,08,21,13,54,27.40
2011,08,21,13,55,27.60
2011,08,21,13,56,27.70
2011,08,21,13,57,27.80
2011,08,21,13,58,27.90
2011,08,21,13,59,27.90
2011,08,21,14,00,28.00
2011,08,21,14,01,28.00
2011,08,21,14,02,28.10
2011,08,21,14,03,28.10
2011,08,21,14,04,28.20
2011,08,21,14,05,28.30
2011,08,21,14,06,28.40
2011,08,21,14,07,28.50
2011,08,21,14,08,28.60
2011,08,21,14,09,28.60
2011,08,21,14,10,28.70
2011,08,21,14,11,28.70
2011,08,21,14,12,28.70
2011,08,21,14,13,28.70
2011,08,21,14,14,28.70
2011,08,21,14,15,28.50
2011,08,21,14,16,28.20
2011,08,21,14,17,28.10
2011,08,21,14,18,28.10
2011,08,21,14,19,28.10
2011,08,21,14,20,28.20
2011,08,21,14,21,28.30
2011,08,21,14,22,28.40
2011,08,21,14,23,28.60
2011,08,21,14,24,28.60
2011,08,21,14,25,28.70
2011,08,21,14,26,28.70
2011,08,21,14,27,28.70
2011,08,21,14,28,28.70
2011,08,21,14,29,28.70
2011,08,21,14,30,28.70
2011,08,21,14,31,28.70
2011,08,21,14,32,28.80
2011,08,21,14,33,28.80
2011,08,21,14,34,28.70
2011,08,21,14,35,28.50
2011,08,21,14,36,28.30
2011,08,21,14,37,28.20
2011,08,21,14,38,28.10
2011,08,21,14,39,28.10
2011,08,21,14,40,28.10
2011,08,21,14,41,28.20
2011,08,21,14,42,28.30
2011,08,21,14,43,28.40
2011,08,21,14,44,28.50
2011,08,21,14,45,28.50
2011,08,21,14,46,28.50
2011,08,21,14,47,28.60
2011,08,21,14,48,28.70
2011,08,21,14,49,28.70
2011,08,21,14,50,28.70
2011,08,21,14,51,28.70
2011,08,21,14,52,28.70
2011,08,21,14,53,28.70
2011,08,21,14,54,28.70
2011,08,21,14,55,28.70
2011,08,21,14,56,28.70
2011,08,21,14,57,28.70
2011,08,21,14,58,28.70
2011,08,21,14,59,28.60
2011,08,21,15,00,28.60
2011,08,21,15,01,28.60
2011,08,21,15,02,28.60
2011,08,21,15,03,28.70
2011,08,21,15,04,28.80
2011,08,21,15,05,28.60
2011,08,21,15,06,28.40
2011,08,21,15,07,28.20
2011,08,21,15,08,27.90
2011,08,21,15,09,27.80
2011,08,21,15,10,27.60
2011,08,21,15,11,27.60
2011,08,21,15,12,27.70
2011,08,21,15,13,27.80
2011,08,21,15,14,27.80
2011,08,21,15,15,27.90
2011,08,21,15,16,27.70
2011,08,21,15,17,27.50
2011,08,21,15,18,27.40
2011,08,21,15,19,27.20
2011,08,21,15,20,27.20
2011,08,21,15,21,27.20
2011,08,21,15,22,27.20
2011,08,21,15,23,27.10
2011,08,21,15,24,26.80
2011,08,21,15,25,26.60
2011,08,21,15,26,26.30
2011,08,21,15,27,26.20
2011,08,21,15,28,26.20
2011,08,21,15,29,26.10
2011,08,21,15,30,26.00
2011,08,21,15,31,25.90
2011,08,21,15,32,25.90
2011,08,21,15,33,25.80
2011,08,21,15,34,25.80
2011,08,21,15,35,25.60
2011,08,21,15,36,25.40
2011,08,21,15,37,25.30
2011,08,21,15,38,25.30
2011,08,21,15,39,25.40
2011,08,21,15,40,25.40
2011,08,21,15,41,25.50
2011,08,21,15,42,25.60
2011,08,21,15,43,25.70
2011,08,21,15,44,25.90
2011,08,21,15,45,26.00
2011,08,21,15,46,26.10
2011,08,21,15,47,26.20
2011,08,21,15,48,26.40
2011,08,21,15,49,26.40
2011,08,21,15,50,26.40
2011,08,21,15,51,26.30
2011,08,21,15,52,26.10
2011,08,21,15,53,25.90
2011,08,21,15,54,25.70
2011,08,21,15,55,25.50
2011,08,21,15,56,25.30
2011,08,21,15,57,25.30
2011,08,21,15,58,25.30
2011,08,21,15,59,25.40
2011,08,21,16,00,25.50
2011,08,21,16,01,25.60
2011,08,21,16,02,25.70
2011,08,21,16,03,25.90
2011,08,21,16,04,26.00
2011,08,21,16,05,26.10
2011,08,21,16,06,26.30
2011,08,21,16,07,26.40
2011,08,21,16,08,26.50
2011,08,21,16,09,26.50
2011,08,21,16,10,26.50
2011,08,21,16,11,26.40
2011,08,21,16,12,26.30
2011,08,21,16,13,26.20
2011,08,21,16,14,26.10
2011,08,21,16,15,26.10
2011,08,21,16,16,26.00
2011,08,21,16,17,26.00
2011,08,21,16,18,25.90
2011,08,21,16,19,25.90
2011,08,21,16,20,25.90
2011,08,21,16,21,26.00
2011,08,21,16,22,26.10
2011,08,21,16,23,26.20
2011,08,21,16,24,26.30
2011,08,21,16,25,26.40
2011,08,21,16,26,26.40
2011,08,21,16,27,26.40
2011,08,21,16,28,26.40
2011,08,21,16,29,26.40
2011,08,21,16,30,26.30
2011,08,21,16,31,26.20
2011,08,21,16,32,26.00
2011,08,21,16,33,25.90
2011,08,21,16,34,25.90
2011,08,21,16,35,25.90
2011,08,21,16,36,25.80
2011,08,21,16,37,25.80
2011,08,21,16,38,25.90
2011,08,21,16,39,25.90
2011,08,21,16,40,25.90
2011,08,21,16,41,26.00
2011,08,21,16,42,26.20
2011,08,21,16,43,26.30
2011,08,21,16,44,26.40
2011,08,21,16,45,26.50
2011,08,21,16,46,26.60
2011,08,21,16,47,26.80
2011,08,21,16,48,27.00
2011,08,21,16,49,27.10
2011,08,21,16,50,27.30
2011,08,21,16,51,27.40
2011,08,21,16,52,27.50
2011,08,21,16,53,27.50
2011,08,21,16,54,27.50
2011,08,21,16,55,27.50
2011,08,21,16,56,27.60
2011,08,21,16,57,27.70
2011,08,21,16,58,27.80
2011,08,21,16,59,27.80
2011,08,21,17,00,27.90
2011,08,21,17,01,28.00
2011,08,21,17,02,28.10
2011,08,21,17,03,28.20
2011,08,21,17,04,28.20
2011,08,21,17,05,28.20
2011,08,21,17,06,28.20
2011,08,21,17,07,28.20
2011,08,21,17,08,28.30
2011,08,21,17,09,28.40
2011,08,21,17,10,28.60
2011,08,21,17,11,28.70
2011,08,21,17,12,28.70
2011,08,21,17,13,28.70
2011,08,21,17,14,28.70
2011,08,21,17,15,28.60
2011,08,21,17,16,28.60
2011,08,21,17,17,28.60
2011,08,21,17,18,28.50
2011,08,21,17,19,28.50